Wind_Speed
11 10 8 7 7 5 4 3 2 2 3 3 4 5 6 9 9 10 10 9 8 7 7 7 7 6 6 5 5 5 5 4 3 3 3 3 2 1 2 2 2 2 3 3
11 10 9 9 9 8 7 6 5 5 5 4 3 4 6 7 8 10 9 9 9 7 7 7 7 7 6 6 6 5 5 5 4 4 4 4 3 3 3 3 4 4 4 4
12 11 11 11 11 11 10 8 7 7 7 6 5 5 6 7 8 9 9 9 8 8 8 8 7 7 7 6 6 6 6 6 5 5 5 5 5 4 5 5 5 5 6 5
14 13 12 12 12 12 12 11 10 10 10 9 9 8 7 8 8 9 9 9 9 9 8 8 8 8 7 7 7 7 7 6 6 6 6 6 6 5 6 6 7 7 7 7
15 14 13 12 12 13 12 12 13 13 12 11 11 10 8 9 9 9 9 10 10 10 9 8 8 8 8 8 8 8 7 7 7 6 7 7 6 6 6 7 7 8 8 9
16 15 14 13 13 14 14 14 14 14 14 13 12 12 10 10 11 10 10 10 10 10 11 10 9 9 8 8 9 9 9 7 7 7 7 7 7 7 7 7 8 8 9 9
17 16 15 15 14 15 15 15 16 15 15 14 14 14 12 12 12 12 12 11 11 11 12 11 10 9 9 9 9 10 10 8 8 7 7 7 8 8 9 9 9 9 10 10
18 17 17 16 15 15 15 16 16 17 17 16 16 16 15 14 13 12 12 12 12 12 12 12 11 10 10 10 10 11 11 10 10 9 8 8 9 10 10 11 11 11 11 12
19 18 18 17 16 16 16 17 18 19 19 19 18 18 17 16 14 14 14 14 14 14 14 13 13 11 10 11 12 13 13 13 12 12 11 11 11 11 12 13 13 13 13 14
19 19 19 18 18 18 18 18 19 20 20 20 19 18 17 17 16 16 16 15 15 16 16 15 15 13 12 13 13 13 14 15 14 14 13 13 13 14 14 15 15 15 16 16
20 20 20 20 19 19 19 20 20 21 21 21 20 18 17 17 16 16 16 16 17 17 17 17 15 15 14 14 14 15 15 15 14 14 14 15 15 17 17 16 17 17 18 18
21 22 21 21 21 21 21 21 22 23 23 23 22 19 18 18 18 18 17 18 19 18 18 18 17 16 16 16 16 17 16 16 15 15 16 17 17 17 17 16 17 18 18 19
23 24 24 23 23 23 23 23 23 24 24 24 23 21 19 20 19 19 19 19 19 19 20 20 19 18 17 18 18 18 18 17 17 17 18 18 18 18 18 18 18 19 19 20
25 26 26 26 25 25 25 25 24 25 25 25 24 22 20 20 20 20 20 19 19 19 20 20 20 20 19 19 20 20 20 20 19 19 19 19 19 19 19 20 20 20 20 20
27 28 27 27 26 26 27 26 26 26 26 26 25 23 21 21 21 21 22 21 21 20 20 19 19 20 21 21 21 21 21 21 20 19 18 19 20 20 20 20 20 21 21 21
29 29 28 28 27 27 28 27 27 27 26 26 25 24 22 22 23 23 23 22 22 21 20 20 20 20 21 21 22 22 22 22 21 20 20 20 20 20 21 21 21 21 21 22
30 31 30 29 28 27 28 27 27 27 27 27 27 26 24 24 24 24 23 22 22 22 22 21 21 21 21 22 22 22 22 22 22 22 22 20 20 21 22 23 22 22 22 23
32 32 31 30 29 30 28 27 27 27 28 28 28 27 26 25 24 24 24 24 23 24 24 23 22 23 23 22 23 23 23 23 23 24 23 22 22 22 23 23 23 24 24 24
33 33 33 33 32 32 29 28 27 28 28 28 28 27 27 26 26 25 25 25 26 26 25 24 24 24 24 23 23 23 24 24 24 25 24 23 23 23 23 23 24 24 24 24
33 33 33 33 33 33 30 29 29 29 28 27 28 27 27 27 27 26 26 26 26 26 25 24 24 24 24 24 24 24 25 26 26 25 24 24 24 24 23 24 24 24 25 25
33 33 33 33 33 33 31 30 30 30 29 27 27 27 27 27 27 27 27 27 27 27 26 25 25 25 24 25 25 26 26 26 26 26 25 25 25 25 24 25 25 25 25 26
34 34 33 33 34 33 32 31 31 31 30 29 28 28 28 27 27 27 27 28 28 28 27 26 25 25 25 25 25 26 26 27 26 26 26 25 26 25 25 25 26 26 27 27
33 33 32 33 32 33 33 33 32 32 31 30 29 28 29 28 28 27 27 27 27 28 27 26 26 25 25 25 25 26 27 28 27 26 25 25 25 25 26 27 28 28 27 28
32 32 32 32 31 32 32 32 32 33 32 32 31 30 29 29 28 27 26 26 27 27 26 25 25 25 26 27 27 27 27 27 27 26 26 26 26 25 27 28 28 27 27 27
31 31 31 30 30 31 31 31 31 32 32 32 31 30 29 29 29 29 28 27 27 27 26 25 25 25 26 27 27 27 27 27 26 25 26 26 27 27 27 27 26 25 25 25
30 30 29 28 29 30 30 30 30 30 30 31 31 30 29 29 29 29 29 28 27 26 25 25 25 26 26 26 27 27 27 26 26 25 24 25 26 26 25 24 24 24 23 23
Wind_Direction
213 213 222 227 236 236 246 263 290 330 345 8 23 23 16 14 13 14 16 17 17 15 16 17 16 15 8 355 340 338 340 342 343 342 339 333 323 297 290 288 288 285 286 287
217 218 225 236 240 241 250 263 274 287 300 316 338 354 360 9 10 9 10 9 9 10 9 9 5 356 351 342 334 328 332 326 318 317 321 319 303 281 275 277 275 280 283 281
218 220 230 243 245 246 254 265 275 284 289 294 303 323 340 349 355 360 2 4 4 3 5 3 356 350 342 334 327 322 319 314 308 302 303 307 305 286 267 262 266 278 281 280
223 229 238 246 248 249 258 264 268 273 279 286 294 307 320 329 338 349 350 353 356 354 350 348 343 341 338 330 317 316 306 300 297 288 285 289 290 283 273 270 270 277 277 272
228 234 241 248 251 253 258 260 263 266 273 278 285 294 311 317 322 331 336 340 342 342 339 330 323 320 321 318 311 304 299 287 281 281 275 278 281 282 278 275 275 278 277 271
231 236 241 247 253 257 259 258 262 266 272 275 282 289 301 309 312 312 316 319 325 328 328 323 316 312 311 313 310 307 297 286 278 280 277 279 282 286 284 281 280 280 280 277
234 239 244 249 254 258 258 260 263 268 273 279 283 286 294 300 305 306 306 306 311 318 322 320 309 306 305 307 311 308 304 292 282 281 277 280 282 282 284 282 282 283 282 279
240 240 246 251 256 258 259 262 267 271 277 281 281 286 293 297 299 300 304 306 308 310 311 314 310 306 304 302 306 306 306 300 289 282 283 284 286 285 284 284 283 283 282 279
244 246 249 254 259 259 260 263 267 271 274 278 283 287 290 294 295 296 301 306 308 306 308 309 309 302 299 301 302 303 303 302 296 289 286 285 285 288 283 281 284 281 281 280
246 248 249 254 255 256 259 262 265 269 274 278 281 286 291 294 295 296 298 301 305 307 307 308 305 299 295 297 299 300 302 298 295 290 287 286 287 288 284 282 283 281 280 279
247 250 250 251 252 256 258 261 265 268 271 276 280 286 291 292 294 298 299 299 301 302 304 305 300 296 295 295 297 297 300 299 293 292 287 287 287 286 284 281 279 278 276 278
248 252 251 252 254 255 259 262 266 268 270 274 279 286 289 288 291 296 298 300 301 300 300 300 299 295 293 293 296 298 297 298 294 290 289 287 287 290 287 285 281 280 278 275
248 252 253 252 253 255 259 263 266 267 269 272 278 284 286 287 289 292 295 298 299 298 298 297 297 294 293 292 293 295 295 294 293 289 287 287 288 288 288 287 285 283 283 281
250 253 255 256 258 259 260 261 264 266 268 272 277 282 284 285 286 289 290 292 296 299 298 297 294 290 289 288 289 293 294 295 293 289 286 285 285 286 287 287 287 285 283 281
250 254 256 257 258 260 261 262 263 266 270 274 277 280 284 284 285 287 288 290 293 297 298 298 297 292 289 288 289 291 291 292 292 290 288 289 288 285 285 286 286 285 285 283
251 254 256 258 258 259 260 261 263 266 269 272 274 277 280 281 282 285 287 287 290 294 297 296 297 296 291 289 289 290 290 291 292 291 288 286 286 287 286 287 285 284 285 285
250 253 256 258 259 260 260 261 263 265 267 269 272 276 278 279 280 283 285 286 288 291 296 296 295 293 290 286 286 288 290 291 292 293 290 286 284 285 285 286 287 284 284 283
251 253 256 258 259 260 264 264 264 266 267 268 272 275 276 278 280 282 284 285 287 290 292 294 294 293 291 286 285 288 289 289 290 291 291 288 286 284 285 286 287 285 283 283
253 254 256 258 259 261 263 263 264 266 267 267 270 274 275 276 279 281 283 285 288 291 293 292 293 292 290 287 287 285 285 287 290 290 289 286 287 285 284 285 286 285 283 283
252 253 255 257 259 260 262 263 264 265 266 267 270 273 275 275 277 280 283 285 287 290 291 290 290 288 288 289 289 288 287 288 289 290 288 286 286 288 287 286 286 284 282 281
252 252 254 255 258 260 262 262 263 264 267 269 271 273 276 277 280 281 282 284 287 289 290 289 291 290 290 290 290 290 289 289 288 287 288 286 285 285 284 285 286 283 281 280
252 252 253 255 257 259 262 262 263 265 267 269 271 273 274 277 280 283 284 284 285 287 288 288 288 288 287 288 289 290 290 290 289 289 287 285 285 285 284 284 286 285 283 280
252 252 254 255 257 259 260 261 263 264 266 268 270 272 273 275 278 281 283 285 285 287 287 286 286 286 285 286 288 288 289 290 289 289 287 284 284 284 285 284 286 286 284 282
252 252 254 255 255 257 260 261 262 263 266 267 268 271 273 274 276 278 281 284 285 287 288 285 284 285 284 286 286 286 287 289 289 287 286 284 283 286 287 285 285 286 285 285
252 252 253 254 255 256 259 261 262 264 265 267 268 270 272 273 275 277 279 281 282 283 283 284 286 286 285 284 284 285 286 287 287 286 286 286 287 288 289 287 286 287 287 287
252 253 253 253 254 255 257 259 262 264 265 266 268 269 270 272 275 276 278 280 281 282 282 283 285 285 286 285 284 284 284 283 284 285 287 288 290 292 292 291 291 290 287 286
Height
5911 5913 5914 5914 5915 5915 5916 5916 5916 5915 5915 5914 5913 5913 5912 5910 5908 5907 5905 5903 5902 5901 5899 5898 5896 5896 5895 5894 5893 5892 5890 5889 5889 5888 5888 5888 5888 5887 5887 5887 5887 5887 5886 5886
5911 5912 5913 5913 5914 5914 5915 5915 5915 5915 5914 5914 5913 5912 5911 5910 5909 5907 5905 5903 5902 5900 5899 5898 5896 5895 5894 5893 5892 5891 5890 5889 5889 5888 5888 5887 5887 5887 5886 5886 5886 5886 5885 5885
5910 5912 5911 5912 5912 5912 5913 5914 5914 5914 5913 5913 5912 5912 5911 5910 5909 5907 5905 5903 5902 5900 5899 5897 5896 5895 5893 5892 5891 5890 5890 5889 5888 5887 5887 5886 5886 5885 5885 5885 5885 5884 5884 5884
5907 5909 5909 5910 5910 5911 5911 5912 5912 5912 5911 5911 5911 5911 5910 5909 5908 5906 5904 5903 5901 5899 5898 5896 5895 5893 5892 5891 5890 5889 5888 5888 5887 5886 5886 5885 5885 5884 5884 5883 5883 5883 5882 5882
5905 5906 5907 5908 5909 5909 5909 5910 5910 5910 5909 5909 5909 5909 5909 5907 5906 5905 5903 5902 5900 5898 5896 5895 5893 5892 5891 5890 5888 5887 5886 5886 5885 5884 5884 5884 5883 5882 5882 5881 5881 5881 5880 5880
5902 5903 5904 5905 5906 5906 5907 5907 5907 5907 5907 5907 5907 5907 5907 5905 5904 5903 5902 5900 5898 5896 5895 5893 5891 5890 5889 5888 5887 5885 5884 5882 5882 5882 5882 5882 5881 5880 5880 5879 5879 5879 5878 5877
5899 5901 5901 5902 5903 5903 5904 5905 5905 5904 5904 5904 5904 5904 5905 5903 5902 5901 5899 5898 5896 5894 5893 5891 5890 5888 5887 5886 5885 5883 5882 5880 5879 5879 5879 5879 5878 5878 5877 5877 5876 5876 5876 5875
5896 5898 5899 5899 5900 5900 5900 5901 5902 5902 5901 5901 5901 5900 5902 5900 5899 5897 5896 5895 5893 5892 5890 5889 5887 5886 5885 5884 5882 5881 5880 5878 5877 5876 5875 5875 5875 5875 5875 5874 5873 5873 5872 5872
5892 5894 5895 5896 5896 5897 5897 5897 5898 5898 5897 5897 5897 5898 5898 5896 5895 5894 5893 5891 5890 5888 5887 5886 5884 5883 5882 5881 5879 5878 5877 5876 5874 5873 5873 5872 5872 5871 5871 5870 5869 5869 5868 5868
5887 5889 5891 5892 5892 5893 5894 5894 5894 5894 5893 5893 5894 5893 5894 5892 5892 5891 5889 5888 5886 5885 5883 5882 5881 5879 5878 5877 5876 5875 5873 5872 5871 5870 5869 5868 5868 5867 5867 5866 5865 5864 5864 5863
5883 5885 5886 5887 5887 5888 5889 5889 5889 5889 5889 5889 5889 5892 5890 5889 5888 5886 5885 5884 5882 5881 5879 5878 5876 5875 5874 5873 5872 5871 5869 5868 5867 5866 5865 5864 5863 5863 5861 5861 5860 5859 5858 5858
5878 5879 5881 5882 5883 5883 5884 5884 5885 5885 5885 5884 5884 5888 5885 5884 5883 5882 5880 5879 5877 5876 5875 5873 5872 5871 5870 5869 5868 5866 5865 5864 5863 5861 5860 5859 5858 5857 5856 5855 5854 5853 5852 5852
5873 5874 5875 5876 5878 5878 5878 5878 5879 5879 5879 5879 5879 5882 5880 5879 5878 5877 5876 5874 5872 5871 5869 5868 5867 5866 5865 5864 5862 5861 5861 5860 5858 5857 5855 5854 5853 5852 5851 5850 5849 5848 5847 5846
5867 5868 5870 5871 5872 5872 5873 5873 5874 5874 5873 5874 5874 5875 5875 5873 5873 5872 5871 5869 5868 5866 5864 5863 5862 5861 5859 5858 5857 5856 5855 5854 5853 5852 5851 5849 5848 5847 5846 5845 5844 5842 5841 5840
5860 5861 5863 5864 5866 5866 5867 5868 5868 5868 5868 5869 5869 5869 5869 5868 5867 5866 5865 5864 5863 5861 5860 5858 5856 5855 5854 5852 5851 5850 5849 5848 5847 5846 5845 5844 5842 5841 5840 5839 5838 5837 5835 5834
5853 5855 5856 5858 5859 5859 5860 5861 5862 5862 5862 5862 5862 5863 5863 5862 5861 5860 5859 5858 5857 5856 5854 5852 5851 5849 5848 5846 5845 5844 5843 5842 5841 5839 5838 5837 5836 5835 5834 5833 5832 5831 5829 5828
5846 5848 5849 5851 5852 5852 5853 5855 5855 5856 5856 5856 5856 5857 5856 5856 5855 5855 5854 5853 5852 5850 5848 5847 5845 5843 5841 5839 5838 5837 5836 5835 5834 5833 5832 5830 5829 5828 5827 5826 5825 5824 5823 5822
5839 5840 5842 5843 5845 5844 5849 5848 5849 5849 5849 5849 5849 5850 5850 5849 5849 5848 5847 5846 5845 5844 5842 5840 5838 5836 5834 5832 5831 5830 5829 5828 5828 5826 5825 5824 5823 5821 5820 5819 5818 5816 5815 5814
5831 5833 5834 5835 5836 5837 5840 5841 5842 5842 5842 5842 5843 5843 5843 5842 5842 5841 5840 5839 5838 5836 5835 5833 5831 5829 5827 5825 5824 5823 5822 5821 5820 5819 5817 5816 5815 5814 5813 5811 5810 5809 5808 5807
5823 5824 5826 5827 5828 5829 5833 5834 5834 5835 5835 5836 5835 5835 5835 5835 5835 5835 5833 5832 5831 5829 5827 5826 5824 5821 5819 5818 5817 5816 5816 5814 5813 5812 5810 5808 5808 5807 5805 5804 5802 5801 5800 5799
5814 5815 5817 5819 5820 5821 5824 5825 5826 5828 5828 5829 5828 5828 5828 5828 5828 5828 5826 5825 5824 5822 5820 5819 5817 5815 5813 5812 5810 5809 5808 5807 5805 5804 5802 5800 5799 5798 5797 5796 5795 5793 5792 5791
5805 5807 5809 5810 5812 5816 5817 5817 5819 5820 5820 5821 5821 5821 5821 5821 5820 5820 5819 5818 5817 5815 5813 5812 5810 5808 5807 5805 5804 5803 5801 5799 5798 5796 5795 5793 5792 5791 5790 5789 5787 5786 5784 5783
5797 5800 5801 5803 5806 5807 5808 5809 5811 5811 5812 5813 5814 5814 5814 5813 5813 5813 5812 5810 5809 5808 5806 5804 5803 5801 5800 5798 5796 5795 5793 5792 5791 5789 5787 5786 5784 5783 5782 5781 5779 5778 5776 5775
5788 5790 5793 5795 5797 5798 5800 5801 5802 5803 5804 5805 5805 5806 5806 5806 5805 5805 5804 5803 5801 5800 5798 5797 5795 5794 5792 5790 5789 5787 5786 5785 5783 5781 5780 5778 5776 5775 5774 5773 5771 5770 5768 5767
5780 5782 5784 5786 5788 5790 5791 5792 5794 5795 5796 5796 5797 5797 5797 5797 5797 5797 5796 5795 5794 5793 5791 5789 5787 5786 5784 5783 5781 5780 5778 5777 5775 5774 5773 5771 5769 5768 5766 5764 5763 5762 5761 5759
5771 5774 5776 5778 5780 5782 5783 5784 5785 5786 5787 5788 5788 5789 5789 5789 5789 5788 5788 5787 5786 5785 5783 5782 5780 5778 5777 5775 5773 5772 5770 5769 5767 5766 5765 5763 5761 5760 5758 5757 5755 5754 5753 5751